Regional Weather Roundup
Issued by NWS Northern Indiana

Home | Current Version | Previous Version | Graphics & Text | Print | Product List | Glossary On
Versions: 1 2 3 4 5 6 7 8 9 10 11 12 13 14 15 16 17 18 19 20 21 22 23 24 25 26 27 28 29 30 31 32 33 34 35 36 37 38 39 40 41 42 43 44 45 46 47 48 49 50
000
ASUS43 KIWX 292210
RWRIWX

KIWX WEATHER ROUNDUP
NATIONAL WEATHER SERVICE NORTHERN INDIANA
600 PM EDT MON JUN 29 2015

NOTE: "FAIR" INDICATES FEW OR NO CLOUDS BELOW 12,000 FEET WITH NO
SIGNIFICANT WEATHER AND/OR OBSTRUCTIONS TO VISIBILITY.

* THESE STATIONS ARE NOT UNDER NWS QUALITY CONTROL. THEY ALSO MAY NOT
  REPORT WEATHER SUCH AS PRECIPITATION OR FOG.

INZ001>027-292300-
NORTHERN INDIANA

CITY           SKY/WX    TMP DP  RH WIND       PRES   REMARKS
GARY*          PTSUNNY   73  66  78 SE7       29.80F
VALPARAISO     CLOUDY    71  64  78 E5        29.81S
MICHIGAN CITY* CLOUDY    72  61  68 SE3       29.81S
LAPORTE*       CLOUDY    72  64  74 SE5       29.82S
KNOX*          CLOUDY    68  63  83 E3        29.80S
SOUTH BEND     MOSUNNY   69  61  75 SE9       29.82S
ELKHART*       CLOUDY    66  61  82 E8        29.83S
GOSHEN         CLOUDY    65  59  81 E7        29.83S
MONTICELLO*    CLOUDY    71  67  85 NE7       29.79S
LOGANSPORT*    HVY RAIN  66  63  88 CALM      29.81R
ROCHESTER*     LGT RAIN  70  66  88 E6        29.81S
WARSAW*          N/A     64  61  88 E5        29.83S
ANGOLA*        CLOUDY    63  52  67 SE8       29.84F
FORT WAYNE     CLOUDY    64  60  87 E8        29.83S
HUNTINGTON*    CLOUDY    65  61  85 E3        29.81S
PERU/GRISSOM   CLOUDY    71  64  79 NE7       29.79S
MARION*        PTSUNNY   71  61  72 E3        29.80S HAZE

$$
INZ028>050-292300-
CENTRAL INDIANA

CITY           SKY/WX    TMP DP  RH WIND       PRES   REMARKS
LAFAYETTE      MOSUNNY   74  64  71 SW5       29.78F
KOKOMO*        CLOUDY    72  63  73 CALM      29.79S
MUNCIE*        PTSUNNY   73  62  68 N6        29.80S
INDIANAPOLIS   PTSUNNY   76  63  64 W10       29.78S

$$
MIZ043>046-050>051-056>058-064>065-071>073-077>080-292300-
SOUTHWEST LOWER MICHIGAN

CITY           SKY/WX    TMP DP  RH WIND       PRES   REMARKS
BATTLE CREEK   MOSUNNY   72  58  61 S15       29.84S
BENTON HARBOR  MOSUNNY   71  62  73 SE8       29.81S
COLDWATER*     LGT RAIN  64  56  76 SE6       29.84F
HILLSDALE*     CLOUDY    66  59  79 SE9       29.85F
HOLLAND        PTSUNNY   72  62  71 S9        29.81F
GRAND RAPIDS   PTSUNNY   73  59  61 S6        29.82S
KALAMAZOO      PTSUNNY   68  57  68 S9        29.83S
STURGIS*         N/A     63  59  88 SE10      29.84S
THREE RIVERS*  FAIR      67  58  72 SE10      29.84S

$$
OHZ001>008-015>018-024>025-292300-
NORTHWEST OHIO

CITY           SKY/WX    TMP DP  RH WIND       PRES   REMARKS
DEFIANCE       CLOUDY    64  59  83 E7        29.84F
FINDLAY        CLOUDY    63  58  83 E10       29.83S
TOLEDO EXPRESS CLOUDY    65  57  75 S8        29.84F
TOLEDO METCALF PTSUNNY   69  56  62 SE17      29.85F
LIMA           CLOUDY    62  61  96 E7        29.82S FOG

$$
AND FOR LAKE MICHIGAN COASTAL AND OPEN LAKE BUOY OBSERVATIONS

STATION/POSITION TEMP    WIND        PRES    VSBY  WAVE
                 AIR SEA DIR/SP/G                  HT/PER
                 (F)     (DEG/KT/KT) (MB)    (MI)  (FT/S)
CALUMET HARBOR    67      40/  4/  5   N/A
MICHIGAN CITY     68     310/  7/  8   N/A
BURNS HARBOR      71     200/  6/  8 1009.8F
SAINT JOSEPH      74     220/  2/  5 1010.2F
4 MI NW BRIDGMAN  67 65                N/A           0
MICHIGAN CITY     67 67   10/  4/  6   N/A           0

$$
&&



USA.gov is the U.S. government's official web portal to all federal, state and local government web resources and services.